Flag for Canada Weather past 2 weeks in Sidney, British Columbia, Canada

Now
52 °F

Passing clouds.


Feels Like: 51 °F
Forecast: 56 / 75 °F
Wind: 3 mph from West

Location: Victoria Int. Airportb. C.

Current Time: Aug 23, 2014 at 6:31:50 AM

Latest Report: Aug 23, 2014 at 6:00 AM


Visibility: 30 mi

Pressure: 30.13 "Hg

Humidity: 94%

Dew point: 50 °F

Location of SidneyLocation

Historic Weather in Sidney — Graph

°F

Sidney temperature yesterday

Maximum temperature yesterday: 73 °F (at 3:00 PM)
Minimum temperature yesterday: 52 °F (at 12:00 AM)
Average temperature yesterday: 62 °F

Past Weeks' High & Low Weather Summary

 TemperatureHumidityPressure
High86 °F (Aug 11, 1:00 PM)100% (Aug 13, 5:00 AM)30.16 "Hg (Aug 13, 5:00 AM)
Low50 °F (Aug 21, 6:00 AM)35% (Aug 11, 1:00 PM)29.76 "Hg (Aug 19, 7:00 PM)
Average63 °F76%29.99 "Hg
* Reported Aug 8 5:00 AM — Aug 23 5:00 AM, Sidney, Weather by CustomWeather, © 2014

Note: Actual official high and low records may vary slightly from our data, if they occured in-between our weather recording intervals... More about our weather records

Advertising

Sidney weather history for previous 24 hours

 ConditionsComfort  
Time TempWeatherWind HumidityBarometerVisibility
5:00 AM
Aug 23
52 °FOvercast.2 mph94%30.12 "Hg30 mi
4:00 AM54 °FPassing clouds.2 mph94%30.12 "Hg30 mi
3:00 AM54 °FPassing clouds.3 mph94%30.11 "Hg30 mi
2:00 AM55 °FPassing clouds.2 mph88%30.10 "Hg30 mi
1:00 AM54 °FHigh level clouds.3 mph94%30.09 "Hg30 mi
12:00 AM55 °FHigh level clouds.3 mph88%30.08 "Hg30 mi
11:00 PM
Aug 22
55 °FHigh level clouds.3 mph94%30.08 "Hg30 mi
10:00 PM57 °FHigh level clouds.3 mph88%30.07 "Hg30 mi
9:00 PM61 °FHigh level clouds.3 mph77%30.06 "Hg30 mi
8:00 PM64 °FMild.5 mph68%30.05 "Hg30 mi
7:00 PM70 °FPartly sunny.3 mph60%30.04 "Hg30 mi
6:00 PM72 °FPartly sunny.5 mph53%30.04 "Hg30 mi
5:00 PM72 °FPartly sunny.6 mph53%30.05 "Hg30 mi
4:00 PM72 °FPartly sunny.8 mph53%30.05 "Hg30 mi
3:00 PM73 °FPartly sunny.7 mph50%30.05 "Hg30 mi
2:00 PM72 °FPartly sunny.6 mph53%30.06 "Hg30 mi
1:00 PM70 °FPartly sunny.6 mph57%30.06 "Hg30 mi
12:00 PM68 °FPartly sunny.6 mph60%30.06 "Hg30 mi
11:00 AM66 °FPartly sunny.6 mph64%30.07 "Hg30 mi
10:00 AM64 °FPartly sunny.5 mph73%30.06 "Hg30 mi
9:00 AM61 °FPartly sunny.2 mph88%30.06 "Hg30 mi
8:00 AM57 °FPartly sunny.No wind88%30.05 "Hg30 mi
7:00 AM54 °FPassing clouds.No wind94%30.04 "Hg30 mi
6:00 AM52 °FPassing clouds.3 mph100%30.03 "Hg30 mi
Weather by CustomWeather, © 2014

See weather overviewHow to use our weather pages